Find Gao Fen 11-03

NORAD ID: 49492 Int'l Des: 2021-107 Owner: YWZB Country: CN operational
LEOCIRCULARRETROGRADESSO

Current View

Loading 3D Globe...

About Gao Fen 11-03

Description loading...

Upcoming Passes

Passes for default location (London). Set your location on the main map for personalized predictions.

Altitude History

Loading altitude history...

Two-Line Element Set

1 49492U 21107A 26151.50342995 .00007120 00000-0 29879-3 0 9999
2 49492 97.2090 196.2891 0009826 115.5503 244.6752 15.23722862252094
Epoch: May 31, 2026 • Age: 6 hours

Current Status

Altitude 517.9 km
Velocity 7.60 km/s
Sub-Earth Point -51.77°S, 149.29°W
Launch Date Nov 20, 2021
Age 4.5 years
Type other

Technical Details

Classification Payload
Mass 3000.00 kg
Dry Mass 3000.00 kg
Total Mass 3000.00 kg
Length 2.00 m
Diameter 2.00 m
Span 8.00 m
Shape Box + 2 Pan
Manufacturer CAST/YWZB
Bus Type JB-16
Phase Status In Orbit
Owner/State YWZB/CN

Most Searched